SES-15

Last updated on Tue Sep 22 2026 00:03:14 GMT+0000 (Coordinated Universal Time)

1 42709U 17026A 26264.32320958 .00000055 00000+0 00000+0 0 9998 2 42709 0.0394 325.3865 0000965 187.6323 194.4041 1.00276489 8392
UTC large
Height (km)
Speed (km/s)
/
Latitude / Longitude
Inclination (degrees)
Orbital Period (minutes)
Azimuth
Elevation
Range (km)
Doppler Factor

Next 0 passes for location: London (51.5072 / 0.1276)

No passes found over London.
SES-15